Regional Weather Roundup
Issued by NWS Goodland, KS

Home | Current Version | Previous Version | Text Only | Print | Product List | Glossary On
Versions: 1 2 3 4 5 6 7 8 9 10 11 12 13 14 15 16 17 18 19 20 21 22 23 24 25 26 27 28 29 30 31 32 33 34 35 36 37 38 39 40 41 42 43 44 45 46 47 48 49 50
000
ASUS43 KGLD 200159
RWRGLD

GOODLAND FORECAST AREA HOURLY WEATHER ROUNDUP
NATIONAL WEATHER SERVICE GOODLAND KS
700 PM MST FRI JAN 19 2018

...OFFICIAL OBSERVATIONS...

CITY           SKY/WX    TMP DP  RH WIND       PRES   REMARKS
GOODLAND KS    CLOUDY    41  19  41 CALM      29.72R
HILL CITY KS   CLOUDY    44  18  35 E5        29.69R
IMPERIAL NEB   CLOUDY    38  29  70 W7        29.73R
MCCOOK NEB     CLOUDY    40  25  55 NE3       29.69S
AKRON CO       CLOUDY    44  22  41 SE7       29.73R
BURLINGTON CO  CLOUDY    45  20  36 E9        29.74R
LIMON CO       CLOUDY    32  19  58 CALM      29.77R
$$

...UNOFFICIAL OBSERVATIONS...

CITY           SKY/WX    TMP DP  RH WIND       PRES   REMARKS
NORTON KS      CLEAR     39  18  41 N5        29.69
SHARON SPRINGS   N/A     50  20  30 CALM        N/A
KIT CARSON CO    N/A     46  19  33 MISG        N/A
YUMA CO        FAIR      39  19  45 S8        29.73R
$$



USA.gov is the U.S. government's official web portal to all federal, state and local government web resources and services.